| time (UTC) | temp F | wind direction | speed MPH | gust MPH | rain 1hr in | rain 24hr in | rain mn in | humidity % | barometer mb |
| 20260508102503 | 43 | 296 | 0.0 | 0.0 | 0.00 | 0.00 | 0.00 | 86 | 975.7 |
| 20260508102005 | 43 | 296 | 0.0 | 0.0 | 0.00 | 0.00 | 0.00 | 86 | 975.7 |
| 20260508101518 | 43 | 296 | 0.0 | 0.0 | 0.00 | 0.00 | 0.00 | 86 | 975.7 |
| 20260508101007 | 43 | 296 | 0.0 | 0.0 | 0.00 | 0.00 | 0.00 | 86 | 975.7 |
| 20260508100507 | 43 | 296 | 0.0 | 0.0 | 0.00 | 0.00 | 0.00 | 85 | 975.6 |
| 20260508100022 | 43 | 296 | 0.0 | 0.0 | 0.00 | 0.00 | 0.00 | 85 | 975.7 |
| 20260508095506 | 43 | 296 | 0.0 | 0.0 | 0.00 | 0.00 | 0.00 | 85 | 975.9 |
| 20260508095011 | 44 | 296 | 0.0 | 0.0 | 0.00 | 0.00 | 0.00 | 85 | 975.7 |
| 20260508094523 | 44 | 296 | 0.0 | 0.0 | 0.00 | 0.00 | 0.00 | 86 | 975.8 |
| 20260508094003 | 44 | 296 | 0.0 | 0.0 | 0.00 | 0.00 | 0.00 | 86 | 975.7 |
| 20260508093504 | 43 | 296 | 0.0 | 0.0 | 0.00 | 0.00 | 0.00 | 86 | 975.9 |
| 20260508093011 | 43 | 296 | 0.0 | 0.0 | 0.00 | 0.00 | 0.00 | 86 | 975.9 |
| 20260508092503 | 43 | 296 | 0.0 | 0.0 | 0.00 | 0.00 | 0.00 | 86 | 975.8 |
| 20260508092003 | 44 | 296 | 0.0 | 0.0 | 0.00 | 0.00 | 0.00 | 85 | 975.8 |
| 20260508091513 | 44 | 296 | 0.0 | 0.0 | 0.00 | 0.00 | 0.00 | 85 | 975.9 |
| 20260508091008 | 44 | 296 | 0.0 | 0.0 | 0.00 | 0.00 | 0.00 | 84 | 975.9 |
| 20260508090505 | 44 | 296 | 0.0 | 0.0 | 0.00 | 0.00 | 0.00 | 83 | 976.0 |
| 20260508090033 | 44 | 296 | 0.0 | 0.0 | 0.00 | 0.00 | 0.00 | 83 | 976.0 |
| 20260508085506 | 44 | 296 | 0.0 | 0.0 | 0.00 | 0.00 | 0.00 | 82 | 976.0 |
| 20260508085006 | 45 | 296 | 0.0 | 0.0 | 0.00 | 0.00 | 0.00 | 82 | 976.0 |
| 20260508084522 | 45 | 296 | 0.0 | 0.0 | 0.00 | 0.00 | 0.00 | 82 | 976.0 |
| 20260508084008 | 45 | 296 | 0.0 | 0.0 | 0.00 | 0.00 | 0.00 | 81 | 976.1 |
| 20260508083512 | 45 | 296 | 0.0 | 0.0 | 0.00 | 0.00 | 0.00 | 81 | 976.1 |
| 20260508083024 | 46 | 296 | 0.0 | 0.0 | 0.00 | 0.00 | 0.00 | 80 | 975.9 |
| 20260508082511 | 46 | 296 | 0.0 | 0.0 | 0.00 | 0.00 | 0.00 | 80 | 976.0 |
| 20260508082003 | 46 | 296 | 0.0 | 0.0 | 0.00 | 0.00 | 0.00 | 79 | 976.0 |
| 20260508081512 | 47 | 296 | 0.0 | 0.0 | 0.00 | 0.00 | 0.00 | 78 | 976.0 |
| 20260508081004 | 47 | 296 | 0.0 | 0.0 | 0.00 | 0.00 | 0.00 | 78 | 976.1 |
| 20260508080503 | 47 | 296 | 0.0 | 0.0 | 0.00 | 0.00 | 0.00 | 77 | 976.1 |
| 20260508080015 | 47 | 296 | 0.0 | 0.0 | 0.00 | 0.00 | 0.00 | 76 | 976.1 |
| 20260508075508 | 48 | 296 | 0.0 | 0.0 | 0.00 | 0.00 | 0.00 | 77 | 976.1 |
| 20260508075006 | 48 | 296 | 0.0 | 0.0 | 0.00 | 0.00 | 0.00 | 75 | 976.2 |
| 20260508074524 | 48 | 296 | 0.0 | 0.0 | 0.00 | 0.00 | 0.00 | 75 | 976.1 |
| 20260508074009 | 48 | 296 | 0.0 | 0.0 | 0.00 | 0.00 | 0.00 | 74 | 976.1 |
| 20260508073510 | 48 | 296 | 0.0 | 0.0 | 0.00 | 0.00 | 0.00 | 74 | 976.1 |
| 20260508073024 | 47 | 296 | 0.0 | 0.0 | 0.00 | 0.00 | 0.00 | 76 | 976.1 |
| 20260508072510 | 47 | 296 | 0.0 | 0.0 | 0.00 | 0.00 | 0.00 | 76 | 976.1 |
| 20260508072007 | 46 | 296 | 0.0 | 0.0 | 0.00 | 0.00 | 0.00 | 77 | 976.2 |
| 20260508071526 | 45 | 296 | 0.0 | 0.0 | 0.00 | 0.00 | 0.00 | 79 | 976.1 |
| 20260508071013 | 45 | 296 | 0.0 | 0.0 | 0.00 | 0.00 | 0.00 | 82 | 976.2 |
| 20260508070508 | 44 | 296 | 0.0 | 0.0 | 0.00 | 0.00 | 0.00 | 85 | 976.1 |
| 20260508070014 | 44 | 296 | 0.0 | 0.0 | 0.00 | 0.00 | 0.00 | 85 | 976.1 |
| 20260508065504 | 44 | 296 | 0.0 | 0.0 | 0.00 | 0.00 | 0.00 | 86 | 976.1 |
| 20260508065008 | 44 | 296 | 0.0 | 0.0 | 0.00 | 0.00 | 0.00 | 86 | 976.1 |
| 20260508064518 | 44 | 296 | 0.0 | 0.0 | 0.00 | 0.00 | 0.00 | 86 | 976.2 |
| 20260508064006 | 44 | 296 | 0.0 | 0.0 | 0.00 | 0.00 | 0.00 | 86 | 976.1 |
| 20260508063504 | 44 | 296 | 0.0 | 0.0 | 0.00 | 0.00 | 0.00 | 86 | 976.1 |
| 20260508063008 | 44 | 296 | 0.0 | 0.0 | 0.00 | 0.00 | 0.00 | 86 | 976.2 |
| 20260508062503 | 44 | 296 | 0.0 | 0.0 | 0.00 | 0.00 | 0.00 | 86 | 976.2 |
| 20260508062003 | 44 | 296 | 0.0 | 0.0 | 0.00 | 0.00 | 0.00 | 86 | 976.2 |
| 20260508061503 | 44 | 296 | 0.0 | 0.0 | 0.00 | 0.00 | 0.00 | 86 | 976.3 |
| 20260508061006 | 44 | 296 | 0.0 | 0.0 | 0.00 | 0.00 | 0.00 | 85 | 976.3 |
| 20260508060506 | 44 | 296 | 0.0 | 0.0 | 0.00 | 0.00 | 0.00 | 85 | 976.3 |
| 20260508060009 | 44 | 296 | 0.0 | 0.0 | 0.00 | 0.00 | 0.00 | 85 | 976.3 |
| 20260508055506 | 44 | 296 | 0.0 | 0.0 | 0.00 | 0.00 | 0.00 | 85 | 976.3 |
| 20260508055010 | 44 | 296 | 0.0 | 0.0 | 0.00 | 0.00 | 0.00 | 85 | 976.4 |
| 20260508054516 | 44 | 296 | 0.0 | 0.0 | 0.00 | 0.00 | 0.00 | 85 | 976.5 |
| 20260508054011 | 44 | 296 | 0.0 | 0.0 | 0.00 | 0.00 | 0.00 | 85 | 976.6 |
| 20260508053505 | 43 | 296 | 0.0 | 0.0 | 0.00 | 0.00 | 0.00 | 84 | 976.6 |
| 20260508053005 | 43 | 296 | 0.0 | 0.0 | 0.00 | 0.00 | 0.00 | 85 | 976.6 |
| 20260508052506 | 43 | 296 | 0.0 | 0.0 | 0.00 | 0.00 | 0.00 | 85 | 976.7 |
| 20260508052004 | 43 | 296 | 0.0 | 0.0 | 0.00 | 0.00 | 0.00 | 86 | 976.8 |
| 20260508051503 | 43 | 296 | 0.0 | 0.0 | 0.00 | 0.00 | 0.00 | 87 | 976.7 |
| 20260508051005 | 43 | 296 | 0.0 | 0.0 | 0.00 | 0.00 | 0.00 | 88 | 976.8 |
| 20260508050504 | 43 | 296 | 0.0 | 0.0 | 0.00 | 0.00 | 0.00 | 88 | 976.8 |
| 20260508050005 | 42 | 296 | 0.0 | 0.0 | 0.00 | 0.00 | 0.00 | 87 | 976.8 |
| 20260508045507 | 42 | 296 | 0.0 | 0.0 | 0.00 | 0.00 | 0.00 | 88 | 976.8 |
| 20260508045006 | 42 | 296 | 0.0 | 0.0 | 0.00 | 0.00 | 0.00 | 88 | 976.7 |
| 20260508044510 | 41 | 296 | 0.0 | 0.0 | 0.00 | 0.00 | 0.00 | 88 | 976.9 |
| 20260508044004 | 41 | 296 | 0.0 | 0.0 | 0.00 | 0.00 | 0.00 | 89 | 976.8 |
| 20260508043504 | 41 | 296 | 0.0 | 0.0 | 0.00 | 0.00 | 0.00 | 89 | 976.8 |
| 20260508043018 | 41 | 296 | 0.0 | 0.0 | 0.00 | 0.00 | 0.00 | 89 | 976.9 |
| 20260508042506 | 40 | 296 | 0.0 | 0.0 | 0.00 | 0.00 | 0.00 | 89 | 976.8 |
| 20260508042006 | 40 | 296 | 0.0 | 0.0 | 0.00 | 0.00 | 0.00 | 89 | 976.8 |
| 20260508041522 | 40 | 296 | 0.0 | 0.0 | 0.00 | 0.00 | 0.00 | 89 | 976.7 |
| 20260508041003 | 40 | 296 | 0.0 | 0.0 | 0.00 | 0.00 | 0.00 | 89 | 976.8 |
| 20260508040503 | 40 | 296 | 0.0 | 0.0 | 0.00 | 0.00 | 0.00 | 88 | 976.8 |
| 20260508040004 | 39 | 296 | 0.0 | 0.0 | 0.00 | 0.00 | 0.00 | 88 | 976.9 |
| 20260508035504 | 39 | 296 | 0.0 | 0.0 | 0.00 | 0.00 | 0.00 | 88 | 976.9 |
| 20260508035004 | 39 | 296 | 0.0 | 0.0 | 0.00 | 0.00 | 0.00 | 88 | 976.8 |
| 20260508034508 | 39 | 296 | 0.0 | 0.0 | 0.00 | 0.00 | 0.00 | 87 | 976.8 |
| 20260508034004 | 39 | 296 | 0.0 | 0.0 | 0.00 | 0.00 | 0.00 | 86 | 976.8 |
| 20260508033503 | 39 | 296 | 0.0 | 0.0 | 0.00 | 0.00 | 0.00 | 86 | 976.8 |
| 20260508033010 | 40 | 296 | 0.0 | 0.0 | 0.00 | 0.00 | 0.00 | 85 | 976.8 |
| 20260508032506 | 40 | 296 | 0.0 | 0.0 | 0.00 | 0.00 | 0.00 | 86 | 976.8 |
| 20260508032008 | 40 | 296 | 0.0 | 0.0 | 0.00 | 0.00 | 0.00 | 85 | 976.8 |
| 20260508031519 | 40 | 296 | 0.0 | 0.0 | 0.00 | 0.00 | 0.00 | 85 | 976.7 |
| 20260508031010 | 40 | 296 | 0.0 | 0.0 | 0.00 | 0.00 | 0.00 | 85 | 976.7 |
| 20260508030506 | 40 | 296 | 0.0 | 0.0 | 0.00 | 0.00 | 0.00 | 84 | 976.7 |
| 20260508030020 | 40 | 296 | 0.0 | 0.0 | 0.00 | 0.00 | 0.00 | 84 | 976.8 |
| 20260508025509 | 41 | 296 | 0.0 | 0.0 | 0.00 | 0.00 | 0.00 | 83 | 976.9 |
| 20260508025003 | 41 | 296 | 0.0 | 0.0 | 0.00 | 0.00 | 0.00 | 83 | 976.9 |
| 20260508024516 | 41 | 296 | 0.0 | 0.0 | 0.00 | 0.00 | 0.00 | 82 | 976.9 |
| 20260508024003 | 41 | 296 | 0.0 | 0.0 | 0.00 | 0.00 | 0.00 | 82 | 976.9 |
| 20260508023503 | 42 | 296 | 0.0 | 0.0 | 0.00 | 0.00 | 0.00 | 81 | 976.9 |
| 20260508023010 | 42 | 296 | 0.0 | 0.0 | 0.00 | 0.00 | 0.00 | 80 | 976.8 |
| 20260508022504 | 43 | 296 | 0.0 | 0.0 | 0.00 | 0.00 | 0.00 | 79 | 976.8 |
| 20260508022004 | 43 | 296 | 0.0 | 0.0 | 0.00 | 0.00 | 0.00 | 78 | 976.7 |
| 20260508021519 | 44 | 296 | 0.0 | 0.0 | 0.00 | 0.00 | 0.00 | 78 | 976.7 |
| 20260508021007 | 44 | 296 | 0.0 | 0.0 | 0.00 | 0.00 | 0.00 | 80 | 976.7 |
| 20260508020505 | 44 | 296 | 0.0 | 0.0 | 0.00 | 0.00 | 0.00 | 79 | 976.7 |
| 20260508020020 | 44 | 296 | 0.0 | 0.0 | 0.00 | 0.00 | 0.00 | 74 | 976.7 |
| 20260508015506 | 44 | 296 | 0.0 | 0.0 | 0.00 | 0.00 | 0.00 | 73 | 976.6 |
| 20260508015006 | 45 | 296 | 0.0 | 0.0 | 0.00 | 0.00 | 0.00 | 73 | 976.6 |
| 20260508014525 | 45 | 296 | 0.0 | 0.0 | 0.00 | 0.00 | 0.00 | 76 | 976.5 |
| 20260508014007 | 46 | 296 | 0.0 | 0.0 | 0.00 | 0.00 | 0.00 | 74 | 976.5 |
| 20260508013508 | 46 | 296 | 0.0 | 0.0 | 0.00 | 0.00 | 0.00 | 66 | 976.5 |
| 20260508013008 | 46 | 296 | 0.0 | 0.0 | 0.00 | 0.00 | 0.00 | 65 | 976.5 |
| 20260508012504 | 47 | 296 | 0.0 | 0.0 | 0.00 | 0.00 | 0.00 | 66 | 976.6 |
| 20260508012003 | 47 | 296 | 0.0 | 0.0 | 0.00 | 0.00 | 0.00 | 68 | 976.5 |
| 20260508011512 | 47 | 296 | 0.0 | 0.0 | 0.00 | 0.00 | 0.00 | 69 | 976.4 |
| 20260508011004 | 47 | 296 | 0.0 | 0.0 | 0.00 | 0.00 | 0.00 | 64 | 976.3 |
| 20260508010504 | 48 | 296 | 0.0 | 0.0 | 0.00 | 0.00 | 0.00 | 63 | 976.3 |
| 20260508010016 | 48 | 296 | 0.0 | 0.0 | 0.00 | 0.00 | 0.00 | 61 | 976.3 |
| 20260508005505 | 49 | 296 | 0.0 | 0.0 | 0.00 | 0.00 | 0.00 | 61 | 976.3 |
| 20260508005007 | 49 | 296 | 0.0 | 0.0 | 0.00 | 0.00 | 0.00 | 60 | 976.4 |
| 20260508004536 | 50 | 296 | 0.0 | 0.0 | 0.00 | 0.00 | 0.00 | 55 | 976.3 |
| 20260508004009 | 50 | 296 | 0.0 | 0.0 | 0.00 | 0.00 | 0.00 | 54 | 976.3 |
| 20260508003507 | 50 | 296 | 0.0 | 0.0 | 0.00 | 0.00 | 0.00 | 54 | 976.2 |
| 20260508003021 | 51 | 296 | 0.0 | 0.0 | 0.00 | 0.00 | 0.00 | 53 | 976.2 |
| 20260508002507 | 51 | 295 | 0.0 | 0.0 | 0.00 | 0.00 | 0.00 | 56 | 976.2 |
| 20260508002013 | 51 | 296 | 0.0 | 0.0 | 0.00 | 0.00 | 0.00 | 53 | 976.2 |
| 20260508001524 | 51 | 296 | 0.0 | 0.0 | 0.00 | 0.00 | 0.00 | 52 | 976.0 |
| 20260508001004 | 52 | 296 | 0.0 | 0.0 | 0.00 | 0.00 | 0.00 | 53 | 976.0 |
| 20260508000505 | 52 | 296 | 0.0 | 0.0 | 0.00 | 0.00 | 0.00 | 52 | 975.9 |
| 20260508000013 | 52 | 296 | 0.0 | 0.0 | 0.00 | 0.00 | 0.00 | 53 | 975.9 |
| 20260507235509 | 52 | 295 | 0.0 | 0.0 | 0.00 | 0.00 | 0.00 | 49 | 975.8 |
| 20260507235008 | 52 | 296 | 0.0 | 0.0 | 0.00 | 0.00 | 0.00 | 50 | 975.7 |
| 20260507234518 | 53 | 295 | 0.0 | 0.0 | 0.00 | 0.00 | 0.00 | 50 | 975.7 |
| 20260507234005 | 53 | 295 | 0.0 | 0.0 | 0.00 | 0.00 | 0.00 | 49 | 975.7 |
| 20260507233513 | 53 | 295 | 0.0 | 0.0 | 0.00 | 0.00 | 0.00 | 50 | 975.8 |
| 20260507233024 | 53 | 295 | 0.0 | 0.0 | 0.00 | 0.00 | 0.00 | 50 | 975.8 |
| 20260507232508 | 53 | 296 | 0.0 | 0.0 | 0.00 | 0.00 | 0.00 | 50 | 975.7 |
| 20260507232007 | 53 | 295 | 0.0 | 0.0 | 0.00 | 0.00 | 0.00 | 48 | 975.7 |
| 20260507231525 | 53 | 295 | 0.0 | 0.0 | 0.00 | 0.00 | 0.00 | 46 | 975.7 |
| 20260507231009 | 53 | 295 | 0.0 | 0.0 | 0.00 | 0.00 | 0.00 | 46 | 975.8 |
| 20260507230508 | 54 | 295 | 0.0 | 0.0 | 0.00 | 0.00 | 0.00 | 47 | 975.9 |
| 20260507230026 | 54 | 295 | 0.0 | 0.0 | 0.00 | 0.00 | 0.00 | 46 | 975.7 |
| 20260507225505 | 54 | 295 | 0.0 | 0.0 | 0.00 | 0.00 | 0.00 | 46 | 975.8 |
| 20260507225007 | 54 | 295 | 0.0 | 0.0 | 0.00 | 0.00 | 0.00 | 45 | 975.8 |
| 20260507224514 | 54 | 295 | 0.0 | 0.0 | 0.00 | 0.00 | 0.00 | 47 | 975.8 |
| 20260507224004 | 54 | 296 | 0.0 | 0.0 | 0.00 | 0.00 | 0.00 | 47 | 975.7 |
| 20260507223512 | 54 | 295 | 0.0 | 0.0 | 0.00 | 0.00 | 0.00 | 47 | 975.8 |
| 20260507223018 | 54 | 295 | 0.0 | 0.0 | 0.00 | 0.00 | 0.00 | 46 | 975.8 |
| 20260507222508 | 55 | 295 | 0.0 | 0.0 | 0.00 | 0.00 | 0.00 | 46 | 975.9 |
| 20260507222008 | 55 | 295 | 0.0 | 0.0 | 0.00 | 0.00 | 0.00 | 47 | 975.9 |
| 20260507221524 | 55 | 295 | 0.0 | 0.0 | 0.00 | 0.00 | 0.00 | 47 | 975.9 |
| 20260507221013 | 55 | 295 | 0.0 | 0.0 | 0.00 | 0.00 | 0.00 | 51 | 975.8 |
| 20260507220514 | 55 | 295 | 0.0 | 0.0 | 0.00 | 0.00 | 0.00 | 54 | 975.9 |
| 20260507220027 | 55 | 295 | 0.0 | 0.0 | 0.00 | 0.00 | 0.00 | 52 | 975.8 |
| 20260507215514 | 55 | 295 | 0.0 | 0.0 | 0.00 | 0.00 | 0.00 | 53 | 975.7 |
| 20260507215014 | 55 | 295 | 0.0 | 0.0 | 0.00 | 0.00 | 0.00 | 55 | 975.6 |
| 20260507214527 | 55 | 295 | 0.0 | 0.0 | 0.00 | 0.00 | 0.00 | 54 | 975.5 |
| 20260507214007 | 55 | 295 | 0.0 | 0.0 | 0.00 | 0.00 | 0.00 | 55 | 975.4 |
| 20260507213507 | 55 | 295 | 0.0 | 0.0 | 0.00 | 0.00 | 0.00 | 56 | 975.4 |
| 20260507213027 | 55 | 295 | 0.0 | 0.0 | 0.00 | 0.00 | 0.00 | 56 | 975.4 |
| 20260507212505 | 54 | 295 | 0.0 | 0.0 | 0.00 | 0.00 | 0.00 | 60 | 975.4 |
| 20260507212004 | 54 | 295 | 0.0 | 0.0 | 0.00 | 0.00 | 0.00 | 61 | 975.4 |
| 20260507211503 | 54 | 295 | 0.0 | 0.0 | 0.00 | 0.00 | 0.00 | 57 | 975.4 |
| 20260507211004 | 54 | 295 | 0.0 | 0.0 | 0.00 | 0.00 | 0.00 | 57 | 975.4 |
| 20260507210503 | 55 | 295 | 0.0 | 0.0 | 0.00 | 0.00 | 0.00 | 55 | 975.3 |
| 20260507210005 | 55 | 295 | 0.0 | 0.0 | 0.00 | 0.00 | 0.00 | 56 | 975.3 |
| 20260507205508 | 55 | 295 | 0.0 | 0.0 | 0.00 | 0.00 | 0.00 | 56 | 975.2 |
| 20260507205005 | 55 | 295 | 0.0 | 0.0 | 0.00 | 0.00 | 0.00 | 56 | 975.3 |
| 20260507204510 | 55 | 295 | 0.0 | 0.0 | 0.00 | 0.00 | 0.00 | 55 | 975.2 |
| 20260507204005 | 55 | 295 | 0.0 | 0.0 | 0.00 | 0.00 | 0.00 | 55 | 975.0 |
| 20260507203504 | 56 | 295 | 0.0 | 0.0 | 0.00 | 0.00 | 0.00 | 56 | 974.9 |
| 20260507203029 | 56 | 295 | 0.0 | 0.0 | 0.00 | 0.00 | 0.00 | 53 | 974.9 |
| 20260507202508 | 56 | 295 | 0.0 | 0.0 | 0.00 | 0.00 | 0.00 | 56 | 974.9 |
| 20260507202006 | 56 | 295 | 0.0 | 0.0 | 0.00 | 0.00 | 0.00 | 56 | 975.0 |
| 20260507201519 | 56 | 295 | 0.0 | 0.0 | 0.00 | 0.00 | 0.00 | 53 | 975.0 |
| 20260507201006 | 56 | 295 | 0.0 | 0.0 | 0.00 | 0.00 | 0.00 | 53 | 974.9 |
| 20260507200503 | 56 | 295 | 0.0 | 0.0 | 0.00 | 0.00 | 0.00 | 53 | 975.0 |
| 20260507200006 | 56 | 295 | 0.0 | 0.0 | 0.00 | 0.00 | 0.00 | 57 | 974.9 |
| 20260507195503 | 56 | 295 | 0.0 | 0.0 | 0.00 | 0.00 | 0.00 | 53 | 975.0 |
| 20260507195003 | 56 | 295 | 0.0 | 0.0 | 0.00 | 0.00 | 0.00 | 55 | 975.1 |
| 20260507194512 | 56 | 294 | 0.0 | 0.0 | 0.00 | 0.00 | 0.00 | 53 | 975.0 |
| 20260507194004 | 55 | 294 | 0.0 | 0.0 | 0.00 | 0.00 | 0.00 | 54 | 975.2 |
| 20260507193504 | 55 | 295 | 0.0 | 0.0 | 0.00 | 0.00 | 0.00 | 53 | 975.3 |
| 20260507193017 | 55 | 295 | 0.0 | 0.0 | 0.00 | 0.00 | 0.00 | 53 | 975.3 |
| 20260507192505 | 56 | 295 | 0.0 | 0.0 | 0.00 | 0.00 | 0.00 | 52 | 975.3 |
| 20260507192006 | 56 | 295 | 0.0 | 0.0 | 0.00 | 0.00 | 0.00 | 53 | 975.3 |
| 20260507191519 | 56 | 295 | 0.0 | 0.0 | 0.00 | 0.00 | 0.00 | 51 | 975.4 |
| 20260507191010 | 56 | 294 | 0.0 | 0.0 | 0.00 | 0.00 | 0.00 | 52 | 975.4 |
| 20260507190506 | 56 | 294 | 0.0 | 0.0 | 0.00 | 0.00 | 0.00 | 52 | 975.4 |
| 20260507190024 | 57 | 294 | 0.0 | 0.0 | 0.00 | 0.00 | 0.00 | 50 | 975.5 |
| 20260507185510 | 58 | 294 | 0.0 | 0.0 | 0.00 | 0.00 | 0.00 | 49 | 975.5 |
| 20260507185003 | 59 | 294 | 0.0 | 0.0 | 0.00 | 0.00 | 0.00 | 46 | 975.5 |
| 20260507184506 | 61 | 294 | 0.0 | 0.0 | 0.00 | 0.00 | 0.00 | 44 | 975.4 |
| 20260507184002 | 65 | 294 | 0.0 | 0.0 | 0.00 | 0.00 | 0.00 | 40 | 975.4 |
| 20260507183504 | 65 | 294 | 0.0 | 0.0 | 0.00 | 0.00 | 0.00 | 42 | 975.3 |
| 20260507183011 | 65 | 294 | 0.0 | 0.0 | 0.00 | 0.00 | 0.00 | 42 | 975.5 |
| 20260507182503 | 63 | 293 | 0.0 | 0.0 | 0.00 | 0.00 | 0.00 | 48 | 975.4 |
| 20260507182007 | 62 | 293 | 0.0 | 0.0 | 0.00 | 0.00 | 0.00 | 50 | 975.4 |
| 20260507181515 | 61 | 293 | 0.0 | 0.0 | 0.00 | 0.00 | 0.00 | 50 | 975.3 |
| 20260507181006 | 61 | 292 | 0.0 | 0.0 | 0.00 | 0.00 | 0.00 | 47 | 975.1 |
| 20260507180509 | 58 | 292 | 0.0 | 0.0 | 0.00 | 0.00 | 0.00 | 53 | 974.4 |
| 20260507180023 | 58 | 288 | 0.0 | 0.0 | 0.00 | 0.00 | 0.00 | 48 | 974.3 |
| 20260507175506 | 60 | 288 | 0.0 | 0.0 | 0.00 | 0.00 | 0.00 | 48 | 972.9 |
| 20260507175012 | 59 | 284 | 0.0 | 0.0 | 0.00 | 0.00 | 0.00 | 47 | 971.8 |
| 20260507174534 | 59 | 285 | 0.0 | 0.0 | 0.00 | 0.00 | 0.00 | 45 | 981.5 |
| 20260507174010 | 59 | 287 | 0.0 | 0.0 | 0.00 | 0.00 | 0.00 | 48 | 971.4 |
| 20260507173510 | 59 | 287 | 0.0 | 0.0 | 0.00 | 0.00 | 0.00 | 47 | 974.9 |
| 20260507173011 | 59 | 285 | 0.0 | 0.0 | 0.00 | 0.00 | 0.00 | 47 | 982.1 |
| 20260507172503 | 58 | 285 | 0.0 | 0.0 | 0.00 | 0.00 | 0.00 | 49 | 983.2 |
| 20260507172003 | 58 | 287 | 0.0 | 0.0 | 0.00 | 0.00 | 0.00 | 52 | 985.4 |
| 20260507171522 | 59 | 288 | 0.0 | 0.0 | 0.00 | 0.00 | 0.00 | 52 | 984.1 |
| 20260507171009 | 62 | 297 | 0.0 | 0.0 | 0.00 | 0.00 | 0.00 | 49 | 986.1 |
| 20260507170507 | 60 | 293 | 0.0 | 0.0 | 0.00 | 0.00 | 0.00 | 53 | 986.1 |
| 20260507170015 | 58 | 288 | 0.0 | 0.0 | 0.00 | 0.00 | 0.00 | 48 | 983.6 |
| 20260507165507 | 59 | 288 | 0.0 | 0.0 | 0.00 | 0.00 | 0.00 | 46 | 983.1 |
| 20260507165011 | 59 | 288 | 0.0 | 0.0 | 0.00 | 0.00 | 0.00 | 46 | 986.6 |
| 20260507164521 | 58 | 292 | 0.0 | 0.0 | 0.00 | 0.00 | 0.00 | 49 | 988.6 |
| 20260507164009 | 57 | 290 | 0.0 | 0.0 | 0.00 | 0.00 | 0.00 | 52 | 986.5 |
| 20260507163507 | 59 | 288 | 0.0 | 0.0 | 0.00 | 0.00 | 0.00 | 47 | 987.3 |
| 20260507163026 | 59 | 288 | 0.0 | 0.0 | 0.00 | 0.00 | 0.00 | 47 | 990.7 |
| 20260507162509 | 59 | 287 | 0.0 | 0.0 | 0.00 | 0.00 | 0.00 | 50 | 991.7 |
| 20260507162010 | 59 | 290 | 0.0 | 0.0 | 0.00 | 0.00 | 0.00 | 47 | 991.1 |
| 20260507161508 | 58 | 291 | 0.0 | 0.0 | 0.00 | 0.00 | 0.00 | 50 | 989.4 |
| 20260507161004 | 59 | 291 | 0.0 | 0.0 | 0.00 | 0.00 | 0.00 | 49 | 990.0 |
| 20260507160504 | 59 | 326 | 0.0 | 0.0 | 0.00 | 0.00 | 0.00 | 48 | 990.9 |
| 20260507160016 | 57 | 312 | 0.0 | 0.0 | 0.00 | 0.00 | 0.00 | 49 | 990.8 |
| 20260507155508 | 58 | 288 | 0.0 | 0.0 | 0.00 | 0.00 | 0.00 | 49 | 989.9 |
| 20260507155009 | 58 | 287 | 0.0 | 0.0 | 0.00 | 0.00 | 0.00 | 50 | 989.4 |
| 20260507154518 | 57 | 289 | 0.0 | 0.0 | 0.00 | 0.00 | 0.00 | 46 | 989.3 |
| 20260507154011 | 59 | 288 | 0.0 | 0.0 | 0.00 | 0.00 | 0.00 | 45 | 990.7 |
| 20260507153505 | 58 | 287 | 0.0 | 0.0 | 0.00 | 0.00 | 0.00 | 44 | 989.5 |
| 20260507153021 | 57 | 290 | 0.0 | 0.0 | 0.00 | 0.00 | 0.00 | 42 | 987.7 |
| 20260507152513 | 58 | 310 | 0.0 | 0.0 | 0.00 | 0.00 | 0.00 | 45 | 987.3 |
| 20260507152013 | 55 | 288 | 0.0 | 0.0 | 0.00 | 0.00 | 0.00 | 49 | 986.2 |
| 20260507151527 | 55 | 287 | 0.0 | 0.0 | 0.00 | 0.00 | 0.00 | 48 | 985.3 |
| 20260507151011 | 54 | 286 | 0.0 | 0.0 | 0.00 | 0.00 | 0.00 | 50 | 985.4 |
| 20260507150513 | 54 | 285 | 0.0 | 0.0 | 0.00 | 0.00 | 0.00 | 50 | 987.0 |
| 20260507150012 | 52 | 302 | 0.0 | 0.0 | 0.00 | 0.00 | 0.00 | 47 | 985.7 |
| 20260507145505 | 53 | 293 | 0.0 | 0.0 | 0.00 | 0.00 | 0.00 | 51 | 985.6 |
| 20260507145012 | 52 | 285 | 0.0 | 0.0 | 0.00 | 0.00 | 0.00 | 49 | 981.3 |
| 20260507144518 | 52 | 286 | 0.0 | 0.0 | 0.00 | 0.00 | 0.00 | 51 | 981.4 |
| 20260507144006 | 52 | 285 | 0.0 | 0.0 | 0.00 | 0.00 | 0.00 | 48 | 979.5 |
| 20260507143512 | 51 | 288 | 0.0 | 0.0 | 0.00 | 0.00 | 0.00 | 47 | 978.4 |
| 20260507143033 | 51 | 288 | 0.0 | 0.0 | 0.00 | 0.00 | 0.00 | 50 | 976.1 |
| 20260507142506 | 51 | 287 | 0.0 | 0.0 | 0.00 | 0.00 | 0.00 | 51 | 976.6 |
| 20260507142013 | 50 | 288 | 0.0 | 0.0 | 0.00 | 0.00 | 0.00 | 52 | 978.5 |
| 20260507141533 | 50 | 288 | 0.0 | 0.0 | 0.00 | 0.00 | 0.00 | 53 | 980.1 |
| 20260507141008 | 48 | 294 | 0.0 | 0.0 | 0.00 | 0.00 | 0.00 | 55 | 980.9 |
| 20260507140509 | 47 | 298 | 0.0 | 0.0 | 0.00 | 0.00 | 0.00 | 55 | 981.6 |
| 20260507140025 | 47 | 296 | 0.0 | 0.0 | 0.00 | 0.00 | 0.00 | 56 | 981.6 |
| 20260507135506 | 47 | 294 | 0.0 | 0.0 | 0.00 | 0.00 | 0.00 | 54 | 981.6 |
| 20260507135009 | 49 | 292 | 0.0 | 0.0 | 0.00 | 0.00 | 0.00 | 54 | 981.6 |
| 20260507134528 | 49 | 290 | 0.0 | 0.0 | 0.00 | 0.00 | 0.00 | 55 | 981.8 |
| 20260507134005 | 48 | 291 | 0.0 | 0.0 | 0.00 | 0.00 | 0.00 | 57 | 983.0 |
| 20260507133506 | 49 | 293 | 0.0 | 0.0 | 0.00 | 0.00 | 0.00 | 54 | 983.9 |
| 20260507133019 | 49 | 293 | 0.0 | 0.0 | 0.00 | 0.00 | 0.00 | 53 | 984.7 |
| 20260507132507 | 50 | 300 | 0.0 | 0.0 | 0.00 | 0.00 | 0.00 | 55 | 986.6 |
| 20260507132006 | 49 | 303 | 0.0 | 0.0 | 0.00 | 0.00 | 0.00 | 54 | 987.2 |
| 20260507131527 | 50 | 311 | 0.0 | 0.0 | 0.00 | 0.00 | 0.00 | 53 | 982.5 |
| 20260507131009 | 48 | 313 | 0.0 | 0.0 | 0.00 | 0.00 | 0.00 | 57 | 983.8 |
| 20260507130510 | 47 | 313 | 0.0 | 0.0 | 0.00 | 0.00 | 0.00 | 61 | 983.9 |
| 20260507130023 | 46 | 312 | 0.0 | 0.0 | 0.00 | 0.00 | 0.00 | 62 | 983.9 |
| 20260507125511 | 46 | 315 | 0.0 | 0.0 | 0.00 | 0.00 | 0.00 | 65 | 984.9 |
| 20260507125011 | 45 | 323 | 0.0 | 0.0 | 0.00 | 0.00 | 0.00 | 66 | 984.7 |
| 20260507124529 | 44 | 34 | 0.0 | 0.0 | 0.00 | 0.00 | 0.00 | 68 | 986.2 |
| 20260507124010 | 44 | 32 | 0.0 | 0.0 | 0.00 | 0.00 | 0.00 | 69 | 986.2 |
| 20260507123506 | 43 | 32 | 0.0 | 0.0 | 0.00 | 0.00 | 0.00 | 72 | 986.2 |
| 20260507123015 | 43 | 36 | 0.0 | 0.0 | 0.00 | 0.00 | 0.00 | 73 | 986.3 |
| 20260507122503 | 42 | 37 | 0.0 | 0.0 | 0.00 | 0.00 | 0.00 | 73 | 986.3 |
| 20260507122006 | 42 | 37 | 0.0 | 0.0 | 0.00 | 0.00 | 0.00 | 74 | 986.2 |
| 20260507121520 | 42 | 37 | 0.0 | 0.0 | 0.00 | 0.00 | 0.00 | 75 | 986.2 |
| 20260507121008 | 41 | 37 | 0.0 | 0.0 | 0.00 | 0.00 | 0.00 | 75 | 986.0 |
| 20260507120502 | 41 | 37 | 0.0 | 0.0 | 0.00 | 0.00 | 0.00 | 76 | 986.0 |
| 20260507120005 | 41 | 37 | 0.0 | 0.0 | 0.00 | 0.00 | 0.00 | 77 | 986.1 |
| 20260507115503 | 40 | 37 | 0.0 | 0.0 | 0.00 | 0.00 | 0.00 | 77 | 986.1 |
| 20260507115003 | 40 | 37 | 0.0 | 0.0 | 0.00 | 0.00 | 0.00 | 78 | 986.2 |
| 20260507114510 | 40 | 37 | 0.0 | 0.0 | 0.00 | 0.00 | 0.00 | 79 | 986.2 |
| 20260507114003 | 39 | 37 | 0.0 | 0.0 | 0.00 | 0.00 | 0.00 | 79 | 986.2 |
| 20260507113502 | 39 | 37 | 0.0 | 0.0 | 0.00 | 0.00 | 0.00 | 80 | 986.1 |
| 20260507113012 | 39 | 37 | 0.0 | 0.0 | 0.00 | 0.00 | 0.00 | 79 | 986.0 |
| 20260507112503 | 39 | 37 | 0.0 | 0.0 | 0.00 | 0.00 | 0.00 | 79 | 985.9 |
| 20260507112006 | 39 | 37 | 0.0 | 0.0 | 0.00 | 0.00 | 0.00 | 79 | 985.8 |
| 20260507111518 | 39 | 37 | 0.0 | 0.0 | 0.00 | 0.00 | 0.00 | 79 | 985.8 |
| 20260507111006 | 39 | 36 | 0.0 | 0.0 | 0.00 | 0.00 | 0.00 | 79 | 985.7 |
| 20260507110507 | 39 | 36 | 0.0 | 0.0 | 0.00 | 0.00 | 0.00 | 78 | 985.6 |
| 20260507110022 | 39 | 36 | 0.0 | 0.0 | 0.00 | 0.00 | 0.00 | 78 | 985.5 |
| 20260507105510 | 39 | 36 | 0.0 | 0.0 | 0.00 | 0.00 | 0.00 | 78 | 985.5 |
| 20260507105007 | 39 | 36 | 0.0 | 0.0 | 0.00 | 0.00 | 0.00 | 78 | 985.5 |
| 20260507104506 | 39 | 36 | 0.0 | 0.0 | 0.00 | 0.00 | 0.00 | 77 | 985.5 |
| 20260507104005 | 39 | 36 | 0.0 | 0.0 | 0.00 | 0.00 | 0.00 | 77 | 985.5 |
| 20260507103503 | 39 | 36 | 0.0 | 0.0 | 0.00 | 0.00 | 0.00 | 77 | 985.4 |
| 20260507103007 | 39 | 36 | 0.0 | 0.0 | 0.00 | 0.00 | 0.00 | 77 | 985.3 |